FENGYUN 3A

Last updated on Tue Jun 17 2025 00:02:21 GMT+0000 (Coordinated Universal Time)

1 32958U 08026A 25167.08135113 .00000110 00000+0 72715-4 0 9993 2 32958 98.6481 110.6590 0009829 101.1478 259.0804 14.19447432883463
UTC large
Height (km)
Speed (km/s)
/
Latitude / Longitude
Inclination (degrees)
Orbital Period (minutes)
Azimuth
Elevation
Range (km)
Doppler Factor

Next 0 passes for location: London (51.5072 / 0.1276)

Sorry there are no passes over London.